Weather History for KD39 - May, 2014

Change the Weather History Date:

Saturday, May 3, 2014

  Actual Average (KGHW) Record (KGHW)
Temperature  
Mean Temperature 44 °F -  
Max Temperature 54 °F 66 °F 88 °F (1952)
Min Temperature 36 °F 38 °F 19 °F (1967)
Degree Days  
Heating Degree Days 20    
Moisture  
Dew Point 33 °F    
Average Humidity 63    
Maximum Humidity 89    
Minimum Humidity 41    
Precipitation  
Precipitation 0.00 in - - ()
Sea Level Pressure  
Sea Level Pressure 29.85 in    
Wind  
Wind Speed 10 mph (WNW)    
Max Wind Speed 24 mph    
Max Gust Speed 34 mph    
Visibility 10 miles    
Events      
Averages and records for this station are not official NWS values.
T = Trace of Precipitation, MM = Missing Value Source: NWS Daily Summary

Daily Weather History Graph

Daily Weather History Graph

Search for Another Location

Airport or City:

Trip Planner

Search our weather history database for the weather conditions in past years. The results will help you decide how hot, cold, wet, or windy it might be!

Date:

Astronomy

May. 03, 2014 Rise Set
Actual Time 6:04 AM CDT 8:29 PM CDT
Civil Twilight 5:31 AM CDT 9:02 PM CDT
Nautical Twilight 4:49 AM CDT 9:44 PM CDT
Astronomical Twilight 4:03 AM CDT 10:31 PM CDT
Moon 9:32 AM CDT (5/3) No Moon Set
Length of Visible Light 15h 31m
Length of Day
14h 25m
Waxing Crescent, 20% of the Moon is Illuminated
May 3
Waxing Crescent
May 6
First Quarter
May 14
Full
May 21
Last Quarter
May 28
New

Hourly Weather History & Observations

Time (CDT) Temp. Windchill Dew Point Humidity Pressure Visibility Wind Dir Wind Speed Gust Speed Precip Events Conditions
12:12 AM 42.1 °F 39.2 °F 33.4 °F 71% 29.74 in 10.0 mi WNW 4.6 mph - N/A   Clear
12:32 AM 41.2 °F - 32.9 °F 72% 29.74 in 10.0 mi Calm Calm - N/A   Clear
12:52 AM 41.4 °F 37.6 °F 32.2 °F 70% 29.74 in 10.0 mi NW 5.8 mph - N/A   Clear
1:12 AM 39.6 °F 35.4 °F 32.2 °F 75% 29.75 in 10.0 mi WNW 5.8 mph - N/A   Clear
1:32 AM 40.6 °F 36.0 °F 32.5 °F 73% 29.76 in 10.0 mi WNW 6.9 mph - N/A   Clear
1:52 AM 40.1 °F 36.9 °F 32.9 °F 75% 29.76 in 10.0 mi WNW 4.6 mph - N/A   Scattered Clouds
2:12 AM 41.0 °F 37.1 °F 33.3 °F 74% 29.77 in 10.0 mi WNW 5.8 mph - N/A   Mostly Cloudy
2:32 AM 41.2 °F 37.3 °F 33.8 °F 75% 29.77 in 10.0 mi WNW 5.8 mph - N/A   Scattered Clouds
2:52 AM 41.0 °F 36.4 °F 33.8 °F 76% 29.77 in 10.0 mi WNW 6.9 mph - N/A   Scattered Clouds
3:12 AM 40.5 °F 35.8 °F 34.0 °F 78% 29.77 in 10.0 mi WNW 6.9 mph - N/A   Scattered Clouds
3:32 AM 40.3 °F 36.3 °F 34.5 °F 80% 29.77 in 10.0 mi NW 5.8 mph - N/A   Mostly Cloudy
3:52 AM 42.3 °F 36.8 °F 34.3 °F 74% 29.78 in 10.0 mi NW 9.2 mph - N/A   Overcast
4:12 AM 42.4 °F 38.8 °F 34.5 °F 74% 29.78 in 10.0 mi NW 5.8 mph - N/A   Overcast
4:32 AM 41.9 °F 40.0 °F 35.1 °F 77% 29.78 in 10.0 mi West 3.5 mph - N/A   Overcast
4:52 AM 39.7 °F 35.6 °F 34.5 °F 82% 29.78 in 10.0 mi West 5.8 mph - N/A   Mostly Cloudy
5:12 AM 38.7 °F 36.3 °F 34.5 °F 85% 29.78 in 10.0 mi WNW 3.5 mph - N/A   Scattered Clouds
5:32 AM 37.4 °F 34.9 °F 34.3 °F 89% 29.78 in 10.0 mi West 3.5 mph - N/A   Clear
5:52 AM 36.9 °F 32.2 °F 33.8 °F 89% 29.79 in 10.0 mi West 5.8 mph - N/A   Clear
6:12 AM 36.7 °F - 33.8 °F 89% 29.80 in 10.0 mi Calm Calm - N/A   Clear
6:32 AM 37.9 °F - 34.0 °F 86% 29.80 in 10.0 mi Calm Calm - N/A   Clear
6:52 AM 38.1 °F 34.6 °F 34.9 °F 88% 29.81 in 10.0 mi West 4.6 mph - N/A   Clear
7:12 AM 38.7 °F 34.3 °F 34.9 °F 86% 29.81 in 10.0 mi West 5.8 mph - N/A   Scattered Clouds
7:32 AM 39.9 °F 35.8 °F 36.0 °F 86% 29.82 in 10.0 mi West 5.8 mph - N/A   Scattered Clouds
7:52 AM 42.4 °F 38.1 °F 36.9 °F 81% 29.82 in 10.0 mi West 6.9 mph - N/A   Clear
8:12 AM 44.4 °F 40.5 °F 37.6 °F 77% 29.82 in 10.0 mi West 6.9 mph - N/A   Scattered Clouds
8:32 AM 45.5 °F 39.9 °F 37.4 °F 73% 29.82 in 10.0 mi West 11.5 mph - N/A   Scattered Clouds
8:52 AM 46.4 °F 39.8 °F 37.4 °F 71% 29.82 in 10.0 mi WNW 16.1 mph - N/A   Scattered Clouds
9:11 AM 47.5 °F - 37.8 °F 69% 29.82 in 10.0 mi WNW 13.8 mph 18.4 mph N/A   Scattered Clouds
9:32 AM 48.6 °F - 36.7 °F 64% 29.82 in 10.0 mi WNW 13.8 mph - N/A   Scattered Clouds
9:52 AM 49.1 °F - 36.3 °F 61% 29.83 in 10.0 mi WNW 19.6 mph 23.0 mph N/A   Clear
10:11 AM 49.1 °F - 36.7 °F 62% 29.83 in 10.0 mi WNW 16.1 mph 23.0 mph N/A   Scattered Clouds
10:32 AM 49.3 °F - 35.8 °F 60% 29.83 in 10.0 mi NW 19.6 mph 26.5 mph N/A   Scattered Clouds
10:52 AM 49.6 °F - 34.3 °F 56% 29.84 in 10.0 mi NW 21.9 mph 25.3 mph N/A   Scattered Clouds
11:12 AM 50.0 °F - 35.8 °F 58% 29.85 in 10.0 mi NW 24.2 mph - N/A   Scattered Clouds
11:32 AM 50.2 °F - 34.5 °F 55% 29.85 in 10.0 mi NW 17.3 mph 25.3 mph N/A   Mostly Cloudy
11:52 AM 49.5 °F - 33.6 °F 54% 29.86 in 10.0 mi WNW 17.3 mph 21.9 mph N/A   Overcast
12:12 PM 50.5 °F - 32.2 °F 49% 29.86 in 10.0 mi WNW 23.0 mph 27.6 mph N/A   Mostly Cloudy
12:32 PM 51.4 °F - 32.5 °F 49% 29.85 in 10.0 mi NNW 18.4 mph 26.5 mph N/A   Scattered Clouds
12:51 PM 52.0 °F - 31.5 °F 46% 29.86 in 10.0 mi WNW 21.9 mph 31.1 mph N/A   Scattered Clouds
1:12 PM 52.7 °F - 32.0 °F 45% 29.85 in 10.0 mi NW 21.9 mph 26.5 mph N/A   Scattered Clouds
1:32 PM 52.2 °F - 30.9 °F 44% 29.85 in 10.0 mi NW 20.7 mph 32.2 mph N/A   Scattered Clouds
1:52 PM 53.6 °F - 31.1 °F 42% 29.86 in 10.0 mi WNW 17.3 mph 25.3 mph N/A   Mostly Cloudy
2:12 PM 52.3 °F - 30.6 °F 43% 29.86 in 10.0 mi WNW 17.3 mph - N/A   Overcast
2:32 PM 53.2 °F - 31.3 °F 43% 29.86 in 10.0 mi WNW 19.6 mph 23.0 mph N/A   Overcast
2:52 PM 53.8 °F - 30.4 °F 41% 29.86 in 10.0 mi NW 23.0 mph 33.4 mph N/A   Overcast
3:12 PM 53.1 °F - 31.6 °F 44% 29.86 in 10.0 mi WNW 21.9 mph 28.8 mph N/A   Overcast
3:52 PM 52.3 °F - 32.2 °F 46% 29.87 in 10.0 mi West 19.6 mph 27.6 mph N/A   Overcast
4:12 PM 52.0 °F - 32.2 °F 47% 29.87 in 10.0 mi NW 20.7 mph 25.3 mph N/A   Overcast
4:31 PM 52.0 °F - 31.5 °F 46% 29.88 in 10.0 mi WNW 19.6 mph 34.5 mph N/A   Mostly Cloudy
4:52 PM 52.2 °F - 32.2 °F 47% 29.88 in 10.0 mi WNW 19.6 mph 26.5 mph N/A   Mostly Cloudy
5:12 PM 51.4 °F - 31.6 °F 47% 29.88 in 10.0 mi WNW 20.7 mph 27.6 mph N/A   Overcast
5:52 PM 50.9 °F - 32.0 °F 48% 29.89 in 10.0 mi NW 18.4 mph 24.2 mph N/A   Overcast
6:12 PM 50.2 °F - 32.0 °F 50% 29.90 in 10.0 mi WNW 16.1 mph 25.3 mph N/A   Overcast
6:31 PM 50.0 °F - 30.9 °F 48% 29.90 in 10.0 mi WNW 17.3 mph 24.2 mph N/A   Overcast
6:52 PM 50.0 °F - 30.2 °F 47% 29.90 in 10.0 mi WNW 20.7 mph 27.6 mph N/A   Overcast
7:12 PM 49.8 °F - 30.4 °F 47% 29.90 in 10.0 mi WNW 16.1 mph 27.6 mph N/A   Mostly Cloudy
7:31 PM 48.9 °F - 30.9 °F 50% 29.91 in 10.0 mi WNW 16.1 mph 20.7 mph N/A   Overcast
7:52 PM 48.2 °F - 30.9 °F 51% 29.91 in 10.0 mi WNW 12.7 mph 20.7 mph N/A   Overcast
8:12 PM 47.7 °F - 30.0 °F 50% 29.91 in 10.0 mi WNW 15.0 mph 21.9 mph N/A   Mostly Cloudy
8:32 PM 46.2 °F 41.2 °F 30.4 °F 54% 29.92 in 10.0 mi WNW 10.4 mph 15.0 mph N/A   Mostly Cloudy
8:52 PM 45.5 °F 39.6 °F 29.8 °F 54% 29.93 in 10.0 mi WNW 12.7 mph 16.1 mph N/A   Mostly Cloudy
9:12 PM 45.1 °F 39.5 °F 30.2 °F 56% 29.94 in 10.0 mi NW 11.5 mph - N/A   Scattered Clouds
9:32 PM 43.7 °F 36.9 °F 30.7 °F 60% 29.95 in 10.0 mi NNW 13.8 mph 18.4 mph N/A   Clear
9:52 PM 42.8 °F 35.4 °F 30.7 °F 62% 29.97 in 10.0 mi NW 15.0 mph 20.7 mph N/A   Clear
10:12 PM 41.4 °F 34.3 °F 30.7 °F 66% 29.98 in 10.0 mi NW 12.7 mph - N/A   Clear
10:32 PM 40.6 °F 33.4 °F 30.2 °F 66% 29.99 in 10.0 mi NW 12.7 mph - N/A   Clear
10:52 PM 40.1 °F 33.6 °F 29.3 °F 65% 29.99 in 10.0 mi NW 10.4 mph - N/A   Clear
11:12 PM 39.2 °F 32.5 °F 29.3 °F 68% 30.00 in 10.0 mi NW 10.4 mph - N/A   Clear
11:32 PM 38.8 °F 30.4 °F 28.4 °F 66% 30.01 in 10.0 mi NNW 15.0 mph 18.4 mph N/A   Clear
11:52 PM 37.8 °F 30.2 °F 28.4 °F 69% 30.02 in 10.0 mi NW 11.5 mph 17.3 mph N/A   Clear